Temp
18 18 19 19 18 19 20 19 20 20 20 20 20 20 20 20 20 20 18 17 16 16 15 15 15 15 15 16 16 16 16 16 16 16 16 15 15 15 14 14 14 13 13
18 19 19 19 18 20 20 20 20 20 20 20 21 20 20 20 20 20 19 18 17 16 16 15 15 15 15 15 16 16 16 16 16 16 16 15 15 15 14 14 14 14 13
18 19 19 18 19 20 20 20 20 20 20 20 20 20 20 20 19 19 19 19 18 17 16 16 16 16 16 15 15 15 16 16 16 16 15 15 15 15 14 14 14 14 13
18 18 18 18 19 20 20 20 20 20 20 20 20 20 20 20 20 20 19 19 18 18 17 17 16 16 16 16 16 15 15 16 16 16 15 15 15 15 15 14 14 14 14
18 18 18 18 19 19 20 20 20 20 20 20 20 20 20 20 19 20 19 19 18 18 18 18 17 17 16 16 16 16 15 16 16 16 16 16 15 15 15 14 14 14 13
18 18 18 18 19 19 19 19 19 19 20 20 20 20 20 19 19 19 19 19 19 18 17 17 17 17 17 17 16 16 16 16 16 16 16 16 15 15 15 14 14 14 13
18 18 18 18 19 19 19 19 19 19 19 20 20 20 19 19 19 19 19 19 19 18 17 17 17 17 17 16 17 17 16 15 15 15 15 15 15 15 15 14 14 14 14
17 18 17 17 18 18 18 19 19 19 19 19 20 20 19 19 19 19 19 19 19 19 18 17 17 16 16 16 16 17 16 16 15 15 14 14 14 14 14 14 14 14 14
18 17 17 17 17 18 18 19 19 19 19 19 19 20 20 20 20 19 19 18 18 18 18 17 16 16 16 16 15 15 16 16 15 14 14 14 14 14 14 14 14 13 13
17 17 17 17 17 17 17 18 19 18 19 19 19 19 20 21 21 20 19 18 18 18 18 17 16 15 15 15 15 15 15 15 15 15 14 14 14 14 14 14 14 14 13
17 17 17 17 17 16 17 17 18 18 18 18 18 18 19 19 19 20 20 18 18 18 17 17 15 15 15 15 15 15 15 15 15 15 13 13 13 13 13 14 14 14 14
17 17 16 16 16 16 16 16 17 17 17 17 18 18 18 19 19 19 19 19 17 17 16 15 15 15 15 15 15 15 16 16 15 14 13 13 13 13 13 13 14 14 14
17 16 16 16 16 16 16 16 16 16 16 16 17 17 18 18 18 18 18 19 19 18 16 15 15 15 15 14 15 15 16 16 15 14 14 12 12 12 13 13 13 13 13
18 17 16 16 16 15 16 15 15 15 15 15 15 16 16 17 17 17 18 17 17 17 16 16 16 15 15 15 15 15 15 15 15 14 14 13 12 12 13 13 12 12 12
16 17 17 16 16 15 15 15 15 14 14 14 14 15 15 15 15 16 17 17 17 16 17 17 16 17 16 15 14 14 14 14 14 14 13 13 12 12 13 13 12 11 11
16 16 17 17 16 15 15 15 15 14 14 14 14 14 14 14 15 15 15 16 16 16 16 18 17 17 17 16 15 14 15 13 14 14 13 12 12 12 11 10 11 10 10
15 15 16 16 16 15 15 15 15 14 14 14 14 14 14 14 15 15 15 15 15 16 16 16 17 17 16 15 15 14 13 13 14 14 14 13 13 12 11 9 9 9 9
15 15 15 16 16 16 15 15 15 14 14 14 14 14 14 14 14 14 15 15 14 15 15 15 16 15 14 13 13 13 12 11 12 12 14 12 14 13 13 10 9 9 8
14 15 15 16 16 15 16 15 14 14 14 14 14 14 14 14 14 14 15 14 14 14 14 14 15 13 13 13 12 13 10 10 11 11 11 10 11 12 12 12 9 8 8
14 15 15 16 16 16 16 16 15 15 14 15 14 14 14 14 14 15 14 14 14 14 13 13 13 13 12 11 11 10 9 10 10 10 10 10 10 10 10 10 11 9 8
14 15 15 16 16 16 16 16 16 15 14 14 15 14 14 14 14 14 14 13 13 12 12 12 12 12 11 9 9 10 9 9 9 9 9 10 9 9 9 9 8 9 9
14 14 14 15 15 15 15 15 15 15 14 14 14 14 13 13 13 13 13 14 13 12 12 12 12 12 11 10 11 9 9 8 7 8 6 6 8 8 9 8 10 9 9
9 9 9 11 11 12 13 13 14 14 13 13 13 12 12 11 11 11 12 12 12 12 11 11 11 11 11 11 10 9 9 9 9 10 7 7 6 5 6 6 6 8 7
6 5 6 7 8 7 11 12 11 10 10 9 10 10 9 8 8 9 9 9 9 8 8 8 8 8 9 9 9 9 9 8 7 6 5 4 5 4 4 4 5 5 5
5 5 5 5 5 5 6 8 9 8 7 7 6 6 6 6 6 7 8 8 7 7 7 6 6 6 7 7 7 7 7 5 3 3 4 3 3 3 4 4 4 4 5
4 4 4 4 4 4 5 6 6 6 5 5 5 5 5 5 5 6 5 5 5 5 5 6 6 6 5 5 4 5 5 4 4 2 4 3 3 3 2 3 4 3 4
Height
816 819 821 824 827 830 832 835 836 838 839 840 841 842 844 845 846 847 847 848 849 850 850 851 851 851 851 850 850 849 848 847 846 845 845 845 845 844 842 841 840 839 838
813 816 818 821 824 827 829 832 834 835 837 839 840 841 842 843 845 846 846 846 848 848 849 849 850 850 850 850 849 849 848 847 846 845 845 844 844 843 842 841 840 839 838
809 812 814 817 820 823 826 829 831 833 835 837 838 840 841 841 842 843 844 845 844 845 847 848 849 849 848 848 849 848 848 846 845 844 844 843 843 842 842 841 840 838 837
804 808 810 813 817 820 822 825 828 830 832 833 835 837 839 840 841 842 843 843 844 844 843 845 846 847 847 847 846 846 847 845 844 843 843 842 842 841 840 840 839 838 837
799 802 805 809 812 815 818 820 823 826 828 830 832 834 836 838 839 840 841 842 842 842 842 842 842 843 844 845 844 844 844 843 842 841 840 841 841 840 840 839 838 837 836
792 797 800 804 807 810 813 815 819 822 824 827 829 831 833 834 836 836 837 838 839 840 840 839 839 839 840 841 842 842 841 841 840 840 839 839 839 838 838 839 838 837 837
787 790 793 797 801 804 807 811 814 817 821 823 827 828 830 830 831 832 834 835 835 836 836 837 837 837 837 837 838 838 838 839 839 839 839 838 838 838 837 837 838 837 836
780 783 786 789 794 798 802 806 808 812 815 818 821 824 825 827 827 828 829 831 831 832 832 833 834 834 834 834 833 834 834 835 837 837 837 836 836 837 837 835 835 835 834
773 776 779 783 788 791 795 798 802 804 806 811 814 817 818 817 817 820 822 825 827 828 828 828 829 830 830 830 830 830 831 831 832 833 834 834 834 835 836 835 834 833 833
767 770 773 777 779 783 787 791 794 798 800 802 807 810 810 811 812 814 817 819 822 823 824 825 825 825 825 826 827 826 827 828 829 829 829 831 832 833 834 833 832 832 830
761 763 766 769 771 773 779 783 788 791 794 796 799 804 807 809 810 810 810 815 817 818 819 820 820 821 821 821 822 823 823 824 825 827 826 827 828 829 829 830 830 829 828
754 756 759 762 765 768 771 776 780 784 788 792 794 797 799 802 805 807 808 809 812 813 814 815 814 815 815 816 817 818 818 819 821 823 824 823 823 824 825 825 826 826 824
748 750 753 755 759 761 765 769 773 776 780 784 785 789 793 796 799 802 805 805 806 808 809 809 809 809 811 811 809 813 814 814 816 818 819 820 820 818 820 820 820 820 821
743 745 748 750 752 757 759 763 767 770 774 778 782 785 788 790 793 796 799 801 802 804 804 801 805 802 803 805 804 805 807 809 811 812 814 815 816 815 817 817 816 816 815
739 740 742 744 747 751 753 758 761 764 768 771 775 779 782 785 787 788 791 794 795 799 795 796 799 797 798 798 799 800 800 803 805 807 808 810 811 810 812 814 814 813 811
735 738 738 739 743 746 749 753 756 759 762 766 770 774 778 780 783 783 786 787 790 791 790 790 789 788 791 792 794 794 793 796 795 800 802 804 805 805 807 809 809 809 808
730 733 735 737 737 741 744 746 750 754 756 760 764 767 770 775 776 779 781 782 783 784 782 785 786 784 784 785 787 790 790 790 787 789 793 795 796 797 800 803 802 803 803
725 727 729 731 733 735 738 741 744 749 751 753 757 760 764 768 770 772 774 772 775 776 777 776 778 778 778 779 780 782 786 783 782 785 782 788 786 788 788 793 794 795 796
720 721 724 725 727 729 733 736 740 742 746 748 752 755 757 760 763 764 766 768 768 768 768 768 770 771 772 772 775 775 779 777 776 777 776 777 779 781 781 781 784 785 788
715 717 718 720 721 722 727 732 736 738 742 745 748 750 752 754 756 757 759 758 759 760 759 761 761 763 764 763 762 770 769 768 768 767 767 769 770 771 774 772 772 774 776
711 713 714 715 718 718 721 726 729 733 736 739 742 745 746 747 749 750 752 751 751 753 755 754 757 756 753 753 758 757 757 759 757 758 757 755 758 757 761 761 765 764 764
710 712 712 714 717 716 718 721 724 727 730 734 736 738 738 739 740 741 743 743 745 746 745 748 747 747 743 744 749 749 750 753 753 748 750 746 745 748 746 750 745 753 756
710 709 710 711 713 714 714 715 717 720 724 728 730 733 735 736 736 734 736 740 741 739 742 744 741 741 738 737 738 735 733 735 736 736 740 737 739 738 736 737 741 742 747
714 715 716 714 714 716 712 713 712 714 720 724 727 731 734 735 736 734 734 738 735 738 738 739 738 738 735 736 734 732 729 729 730 731 733 731 727 727 730 732 735 739 742
719 722 722 717 717 716 717 714 715 719 723 728 732 735 737 738 736 734 735 734 735 735 735 735 735 734 732 731 730 729 728 728 728 727 728 728 727 728 726 725 729 731 735
730 729 722 720 721 722 723 723 726 728 732 734 735 738 737 735 734 734 735 736 736 736 736 735 734 732 731 730 731 730 728 725 725 723 722 727 724 725 724 721 720 724 727
Wind_Speed
18 20 18 19 18 16 17 17 15 15 13 12 11 10 10 9 8 6 6 9 9 8 7 6 5 5 5 5 5 4 5 5 6 5 6 7 7 8 8 8 7 8 8
23 22 20 21 21 19 18 17 17 16 15 13 13 12 11 10 9 8 7 7 10 10 9 8 8 7 7 8 8 8 8 9 9 9 9 9 9 10 9 9 8 8 8
26 25 22 23 21 21 18 18 17 16 15 14 13 13 12 12 12 11 10 9 9 13 12 11 10 10 10 10 11 12 13 14 15 14 12 12 12 12 11 11 11 10 10
28 25 25 25 22 22 20 20 19 18 17 16 15 14 14 12 12 12 12 11 10 9 11 14 13 14 14 13 11 10 10 11 12 14 14 13 13 13 12 11 11 11 11
31 31 28 24 24 25 23 22 20 20 19 17 16 15 14 14 14 13 13 13 12 12 12 12 13 15 15 15 14 12 12 12 13 12 11 12 12 12 10 9 8 9 9
32 31 28 27 26 25 25 23 22 21 20 19 17 16 15 15 15 16 15 15 15 15 15 13 12 13 16 16 16 15 14 13 13 11 10 10 9 10 8 8 8 9 10
33 32 31 30 27 26 26 25 24 22 21 19 17 15 15 17 17 17 17 17 17 17 16 16 15 14 13 14 17 16 15 14 13 13 12 11 11 11 8 7 10 10 10
30 36 34 32 32 26 27 26 26 22 22 22 19 14 5 12 20 20 20 20 19 18 18 18 17 16 15 14 15 16 17 16 14 13 13 13 12 11 10 8 9 11 10
33 33 34 32 35 32 30 30 29 29 24 24 25 12 4 5 11 20 23 21 19 19 19 18 18 17 17 15 17 18 18 18 18 16 14 13 12 11 10 10 11 12 11
28 36 37 35 38 36 32 29 31 30 26 25 26 28 18 6 4 3 16 20 20 20 19 18 18 19 20 19 20 19 17 18 20 20 16 14 13 14 14 13 13 13 15
29 31 37 37 36 36 37 32 30 31 31 26 26 26 25 16 10 5 3 6 15 19 20 20 21 20 20 22 21 23 22 22 20 21 17 16 15 16 16 17 16 15 16
29 31 33 38 37 39 37 37 34 33 31 30 25 25 25 23 17 13 6 6 9 11 21 22 24 26 25 24 25 26 24 21 22 22 19 17 17 17 19 18 17 17 17
24 28 29 33 36 36 37 37 34 33 34 33 32 28 27 26 24 20 17 13 8 12 9 17 22 26 27 27 27 27 26 24 23 24 22 19 17 20 19 17 16 16 18
22 26 27 33 31 37 36 37 37 37 34 35 34 33 28 29 26 26 23 15 6 8 11 11 17 23 27 30 30 27 26 27 26 26 25 23 20 22 20 21 14 15 20
25 24 23 27 33 29 31 31 33 35 32 35 33 33 33 29 29 30 30 26 19 8 9 13 17 22 24 27 30 29 29 29 27 27 27 26 24 26 25 25 22 22 22
24 24 26 23 29 29 30 32 30 30 30 27 28 26 29 28 28 29 32 29 26 22 11 25 21 23 22 26 30 30 32 29 29 28 28 27 27 25 25 25 23 24 24
27 27 26 28 23 29 30 32 29 29 30 27 28 29 29 31 29 28 27 28 28 28 18 26 28 25 26 25 25 30 32 31 31 33 31 32 31 29 27 26 24 23 24
27 27 27 29 28 28 29 29 30 30 28 28 27 27 29 27 30 30 29 28 28 29 26 23 25 26 27 26 25 26 33 31 32 37 33 35 34 34 30 29 26 25 24
24 23 25 26 25 22 26 26 26 26 26 24 24 26 28 26 28 28 30 30 32 30 29 24 26 19 21 24 24 26 34 32 37 38 35 35 33 33 32 31 30 27 25
21 23 23 26 26 20 20 24 25 23 25 26 26 28 29 30 31 31 32 33 32 28 25 24 20 21 24 25 21 27 30 36 41 42 42 41 38 38 37 35 34 31 28
17 22 23 21 22 20 21 21 21 22 22 23 27 29 33 32 33 32 27 19 16 18 18 17 17 16 16 14 22 29 27 31 40 43 45 46 47 46 43 39 36 34 31
17 18 18 20 20 19 20 23 24 23 24 25 24 22 23 26 22 14 13 13 15 18 19 26 30 23 23 24 34 28 28 17 6 31 36 36 46 49 49 47 43 36 33
6 4 1 8 8 12 17 21 25 25 18 19 19 16 11 10 13 14 12 15 14 15 20 23 22 23 26 29 31 30 31 26 29 25 22 26 30 38 41 39 36 32 30
21 18 19 18 18 15 12 13 17 22 19 13 9 6 3 1 2 3 3 5 4 8 10 13 17 22 24 25 23 23 25 24 25 22 18 10 23 27 28 30 30 28 30
28 24 23 28 29 26 24 23 20 21 20 18 16 13 11 9 11 8 6 7 8 9 11 14 13 13 13 15 17 20 20 15 7 8 20 8 9 15 17 20 22 22 24
20 18 26 29 32 32 28 25 21 19 18 16 15 14 16 14 13 12 11 11 11 11 13 16 14 14 12 11 10 12 15 17 9 3 18 17 12 11 5 18 23 23 23
Wind_Direction
200 199 194 190 195 195 201 200 203 202 205 204 203 204 202 203 202 199 208 205 195 204 209 219 228 231 242 253 261 269 277 280 289 300 310 313 325 329 331 334 344 338 343
201 201 197 192 198 206 204 206 207 207 206 207 206 205 205 206 207 208 204 222 220 216 221 225 235 243 249 260 266 270 275 280 281 287 296 299 306 310 317 322 322 322 325
206 202 198 199 203 206 207 207 209 209 207 210 214 213 212 210 209 210 212 215 228 229 231 230 234 248 258 260 265 270 275 276 279 278 281 285 292 301 309 314 312 313 312
212 205 200 203 206 206 204 206 207 209 210 207 210 215 217 218 218 217 216 218 220 226 244 242 238 240 248 259 266 273 280 281 280 277 273 275 285 294 304 305 305 307 307
211 210 209 205 205 205 204 204 208 207 210 210 210 213 215 220 223 225 224 225 226 226 228 250 252 245 252 260 263 265 269 277 277 278 273 267 274 281 294 300 315 321 319
212 210 210 209 210 204 204 205 208 208 211 212 214 215 218 223 229 227 228 229 234 235 234 229 251 255 251 256 260 262 262 266 271 265 267 269 265 274 280 286 301 313 318
215 212 211 210 211 206 202 206 208 207 211 210 214 214 227 225 227 229 230 234 233 233 236 237 236 237 250 260 254 258 255 257 265 267 269 266 270 271 266 277 294 300 300
217 215 212 207 207 206 205 207 204 204 208 207 210 204 213 227 229 227 229 233 235 233 234 237 237 237 236 245 257 250 249 248 250 254 267 268 266 268 268 273 281 289 286
224 217 212 208 208 207 209 208 205 202 199 204 209 197 200 223 199 216 221 229 231 234 236 235 235 234 235 234 242 252 252 247 247 248 257 256 259 259 269 281 277 281 272
225 224 219 214 211 208 211 211 207 208 201 200 204 216 230 257 215 179 205 223 230 233 236 236 234 234 234 240 238 251 251 249 250 253 244 251 251 259 266 271 277 274 254
225 225 222 215 209 207 209 212 210 207 209 205 203 208 223 232 245 262 190 199 226 232 235 233 238 246 240 238 241 247 249 254 253 251 240 245 253 260 266 270 271 271 257
228 226 222 220 219 213 210 210 210 207 207 211 209 210 212 212 215 225 240 200 214 233 231 233 229 237 242 247 246 247 255 253 249 248 244 245 250 260 265 264 264 266 256
230 226 228 225 223 217 212 212 211 208 210 209 208 210 214 222 222 223 234 234 224 221 213 237 245 242 247 243 246 251 254 252 247 247 248 248 253 250 259 261 261 256 242
238 232 232 229 228 222 216 217 215 213 215 216 217 216 219 223 223 225 226 223 243 234 209 225 250 241 243 248 247 247 252 250 247 247 250 250 241 260 258 261 251 227 237
239 248 234 234 235 229 222 224 216 216 217 218 220 219 223 231 228 225 229 228 224 236 243 231 225 251 246 244 249 246 248 252 250 249 249 250 245 251 266 269 255 249 247
237 245 250 239 234 228 221 224 227 222 217 219 220 221 223 230 233 232 231 230 229 237 256 247 240 249 251 245 247 247 252 244 250 248 249 247 249 254 261 266 258 253 256
231 234 238 248 240 238 224 217 218 220 211 214 222 221 225 231 233 234 233 235 236 235 243 253 261 254 248 246 251 246 249 246 247 245 251 248 249 252 257 257 258 257 258
236 236 234 235 239 242 233 224 221 224 223 220 217 220 227 230 234 236 237 234 233 235 239 244 246 247 242 245 247 258 250 245 248 251 249 249 249 249 251 252 254 255 257
237 233 236 235 228 231 241 231 226 218 220 222 228 229 231 229 234 236 237 242 239 237 237 237 245 241 243 248 244 261 257 255 248 249 247 243 245 250 254 254 249 250 252
234 236 235 232 223 222 232 239 235 231 232 234 239 239 240 239 238 243 240 237 237 238 234 237 234 241 242 244 252 242 243 250 250 248 244 246 246 251 249 246 246 245 244
234 231 236 225 232 225 228 234 237 236 229 227 242 243 247 243 249 246 249 239 247 259 262 260 256 244 237 236 235 241 238 244 246 244 241 239 241 239 244 241 246 243 240
247 241 245 249 247 249 240 240 240 235 227 232 231 236 244 244 235 228 240 249 250 257 258 257 258 248 234 224 245 233 234 236 248 247 238 242 241 242 241 242 236 241 243
14 50 306 222 211 236 240 242 240 231 226 222 219 210 203 226 233 237 244 255 254 258 263 262 248 239 243 243 235 228 223 223 236 251 242 246 236 236 235 233 236 235 234
80 78 83 95 103 96 136 143 132 135 127 116 113 103 143 140 295 235 255 260 295 290 289 284 279 283 281 278 278 266 248 241 247 257 248 233 230 226 229 230 234 236 231
82 67 76 74 75 73 78 89 99 98 96 89 84 84 78 61 39 32 359 348 333 327 321 317 309 300 304 301 293 279 247 220 245 245 224 220 216 214 214 218 226 230 227
86 79 68 63 64 65 64 73 79 85 81 79 71 61 53 45 30 22 16 5 348 339 324 322 315 310 306 300 297 266 269 229 220 230 222 212 206 198 223 228 219 225 226